Station BUZM3 - Buzzards Bay, MA Image indicating link to RSS feed of recent meteorological observations for station BUZM3


Conditions at BUZM3 as of
(12:00 pm EDT)
1600 GMT on 07/13/2024:
     

Click on the graph icon in the table below to see a time series plot of the last five days of that observation.

5-day plot - Wind Direction Wind Direction (WDIR): SW ( 230 deg true )
5-day plot - Wind Speed Wind Speed (WSPD): 4 kts
5-day plot - Wind Gust Wind Gust (GST): 4 kts
5-day plot - Atmospheric Pressure Atmospheric Pressure (PRES):30.17 in
5-day plot - Pressure Tendency Pressure Tendency (PTDY):-0.02 in ( Falling )
5-day plot - Air Temperature Air Temperature (ATMP): 71.8 °F
5-day plot - Wind Speed at 10 Meters Wind Speed at 10 meters (WSPD10M): 4 kts
5-day plot - Wind Speed at 20 Meters Wind Speed at 20 meters (WSPD20M): 4 kts
5-day plot -  Wind Speed, Wind Gust and Atmospheric Pressure Combined plot of Wind Speed, Gust, and Air Pressure
Continuous Winds
TIME
(EDT)
5-day plot - Wind Direction WDIR 5-day plot - Wind Speed WSPD
12:00 pmWSW ( 239 deg ) 4 kts
11:50 amWSW ( 251 deg ) 5 kts
11:40 amWSW ( 249 deg ) 6 kts
11:30 amWSW ( 244 deg ) 6 kts
11:20 amWSW ( 251 deg ) 5 kts
11:10 amW ( 264 deg ) 6 kts
 
Peak gust during the measurement hour
TIME
(EDT)
5-day plot - Gust Direction GDR 5-day plot - Gust Speed GST
11:02 amW ( 270 deg ) 8 kts
Previous observations
TIME
(EDT)
5-day plot - Wind Direction
WDIR
 
5-day plot - Wind Speed
WSPD
kts
5-day plot - Wind Gust
GST
kts
5-day plot - Wave Height
WVHT
ft
5-day plot - Dominant Wave Period
DPD
sec
5-day plot - Average Wave Period
APD
sec
5-day plot - Mean Wave Direction
MWD
 
5-day plot - Atmospheric Pressure
PRES
in
5-day plot - Pressure Tendency
PTDY
in
5-day plot - Air Temperature
ATMP
°F
5-day plot - Water Temperature
WTMP
°F
5-day plot - Dew Point
DEWP
°F
5-day plot - Salinity
SAL
psu
5-day plot - Visibility
VIS
nmi
5-day plot - Tide (above MLLW)
TIDE
ft
2024-07-13 11:00 am W 7 8----30.20+0.00 71.4-----
2024-07-13 10:00 am SW 10 11----30.19+0.00 73.2-----
2024-07-13 09:00 am SW 11 12----30.20+0.00 73.4-----
2024-07-13 08:00 am SW 14 15----30.20+0.01 73.6-----
2024-07-13 07:00 amSSW 18 19----30.20+0.00 74.1-----
2024-07-13 06:00 am SW 14 15----30.20+0.01 74.1-----
2024-07-13 05:00 am SW 21 22----30.19-0.01 74.8-----
2024-07-13 04:00 amSSW 12 12----30.19-0.02 73.8-----
2024-07-13 03:00 am SW 18 19----30.19-0.04 74.3-----
2024-07-13 02:00 amSSW 17 18----30.20-0.02 73.8-----
2024-07-13 01:00 amSSW 12 13----30.22-0.01 73.8-----
2024-07-13 12:00 amSSW 15 16----30.23+0.01 74.1-----
2024-07-12 11:00 pmSSW 18 19----30.22+0.00 74.8-----
2024-07-12 10:00 pmSSW 18 19----30.23+0.02 75.0-----
2024-07-12 09:00 pm SW 13 13----30.22+0.03 73.9-----
2024-07-12 08:00 pm SW 14 15----30.22+0.03 74.1-----
2024-07-12 07:00 pmSSW 18 19----30.20+0.01 74.8-----
2024-07-12 06:00 pmSSW 18 19----30.19+0.00 74.8-----
2024-07-12 05:00 pmSSW 19 20----30.19-0.01 75.2-----
2024-07-12 04:00 pmSSW 18 20----30.19-0.01 75.2-----
2024-07-12 03:00 pmSSW 17 19----30.20-0.01 75.0-----
2024-07-12 02:00 pmSSW 17 19----30.20+0.00 74.7-----
2024-07-12 01:00 pmSSW 14 15----30.20+0.00 74.1-----
2024-07-12 12:00 pmSSW 12 13----30.21+0.01 73.0-----